Weather History for Casper, WY

Change the Weather History Date:

Friday, August 23, 2013

  Actual Average Record
Temperature  
Mean Temperature 77 °F 68 °F  
Max Temperature 90 °F 85 °F 97 °F (2006)
Min Temperature 63 °F 50 °F 41 °F (1966)
Degree Days  
Heating Degree Days 0 1  
Month to date heating degree days 0 14  
Since 1 June heating degree days 72 166  
Since 1 July heating degree days 0 30  
Cooling Degree Days 12 4  
Month to date cooling degree days 142 128  
Year to date cooling degree days 465 373  
Since 1 June cooling degree days 455 369  
Growing Degree Days 27 (Base 50)    
Moisture  
Dew Point 50 °F    
Average Humidity 46    
Maximum Humidity 73    
Minimum Humidity 19    
Precipitation  
Precipitation 0.02 in 0.03 in 0.80 in (1972)
Month to date precipitation 0.70 0.67  
Year to date precipitation 9.20 8.90  
Snow  
Snow 0.00 in 0.00 in - ()
Month to date snowfall 0.0 0.0  
Since 1 June snowfall 0.0 0.1  
Since 1 July snowfall 0.0 0.0  
Snow Depth 0.00 in    
Sea Level Pressure  
Sea Level Pressure 29.83 in    
Wind  
Wind Speed 10 mph (SSW)    
Max Wind Speed 39 mph    
Max Gust Speed 48 mph    
Visibility 10 miles    
Events Rain , Thunderstorm    
T = Trace of Precipitation, MM = Missing Value Source: NWS Daily Summary

Daily Weather History Graph

Daily Weather History Graph

Search for Another Location

Airport:

Trip Planner

Search our weather history database for the weather conditions in past years. The results will help you decide how hot, cold, wet, or windy it might be!

Date:

Astronomy

Aug. 23, 2013 Rise Set
Actual Time 6:21 AM MDT 7:55 PM MDT
Civil Twilight 5:51 AM MDT 8:24 PM MDT
Nautical Twilight 5:15 AM MDT 9:00 PM MDT
Astronomical Twilight 4:36 AM MDT 9:39 PM MDT
Moon 9:08 PM MDT (8/23) 9:25 AM MDT (8/23)
Length of Visible Light 14h 33m
Length of Day
13h 33m
Waning Gibbous, 91% of the Moon is Illuminated
Aug 23
Waning Gibbous
Aug 28
Last Quarter
Sep 5
New
Sep 12
First Quarter
Sep 19
Full

Hourly Weather History & Observations

Time (MDT) Temp. Dew Point Humidity Pressure Visibility Wind Dir Wind Speed Gust Speed Precip Events Conditions
12:53 AM 64.9 °F 55.9 °F 73% 29.91 in 10.0 mi Calm Calm - N/A   Mostly Cloudy
1:53 AM 68.0 °F 55.0 °F 63% 29.89 in 10.0 mi South 3.5 mph - N/A   Mostly Cloudy
2:53 AM 70.0 °F 50.0 °F 49% 29.85 in 10.0 mi North - - N/A   Clear
3:53 AM 68.0 °F 50.0 °F 52% 29.84 in 10.0 mi WSW 8.1 mph - N/A   Partly Cloudy
4:53 AM 66.0 °F 51.1 °F 59% 29.84 in 10.0 mi SSW 10.4 mph - N/A   Scattered Clouds
5:53 AM 66.0 °F 51.1 °F 59% 29.85 in 10.0 mi SW 12.7 mph - N/A   Mostly Cloudy
6:53 AM 66.0 °F 51.1 °F 59% 29.89 in 10.0 mi SSW 12.7 mph - N/A   Clear
7:53 AM 70.0 °F 51.1 °F 51% 29.88 in 10.0 mi SSW 12.7 mph - N/A   Clear
8:53 AM 73.0 °F 51.1 °F 46% 29.88 in 10.0 mi SW 13.8 mph 21.9 mph N/A   Clear
9:53 AM 77.0 °F 50.0 °F 39% 29.87 in 10.0 mi SSW 15.0 mph - N/A   Clear
10:53 AM 79.0 °F 48.9 °F 35% 29.86 in 10.0 mi SW 8.1 mph - N/A   Clear
11:53 AM 82.9 °F 48.9 °F 31% 29.84 in 10.0 mi South 8.1 mph 16.1 mph N/A   Clear
12:53 PM 84.9 °F 46.9 °F 27% 29.83 in 10.0 mi WSW 8.1 mph - N/A   Clear
1:53 PM 87.1 °F 46.9 °F 25% 29.78 in 10.0 mi South 8.1 mph - N/A   Partly Cloudy
2:53 PM 88.0 °F 46.0 °F 23% 29.75 in 10.0 mi SW 8.1 mph - N/A   Mostly Cloudy
3:53 PM 88.0 °F 45.0 °F 22% 29.73 in 10.0 mi SSE 10.4 mph - N/A   Partly Cloudy
4:53 PM 89.1 °F 43.0 °F 20% 29.71 in 10.0 mi South 4.6 mph - N/A   Clear
5:53 PM 84.9 °F 46.0 °F 26% 29.71 in 10.0 mi ESE 9.2 mph - N/A   Clear
6:53 PM 82.9 °F 48.0 °F 29% 29.70 in 10.0 mi East 9.2 mph - N/A   Clear
7:53 PM 81.0 °F 48.9 °F 33% 29.71 in 10.0 mi SE 8.1 mph - N/A   Clear
8:12 PM 73.4 °F 50.0 °F 44% 29.99 in 10.0 mi South 36.8 mph 48.3 mph 0.00 in Rain , Thunderstorm Light Rain
8:53 PM 71.1 °F 50.0 °F 47% 29.81 in 10.0 mi South 28.8 mph 40.3 mph 0.00 in Thunderstorm Mostly Cloudy
9:00 PM 69.8 °F 51.8 °F 53% 30.03 in 10.0 mi South 26.5 mph 39.1 mph N/A   Mostly Cloudy
9:53 PM 68.0 °F 53.1 °F 59% 29.84 in 10.0 mi SSW 20.7 mph 27.6 mph 0.00 in Rain Light Rain
10:53 PM 64.0 °F 57.0 °F 78% 29.84 in 10.0 mi South 5.8 mph - 0.02 in   Mostly Cloudy
11:53 PM 64.9 °F 54.0 °F 68% 29.83 in 10.0 mi South 8.1 mph - N/A   Clear